Location: Il Ritiro
(43.4167°N, 13.1333°E)
Time: 01:13:47
(UTC+00:00)

Cosmos 2278 Rocket - Pass Details

Date: 05 July 2020
Orbit: 841 x 845 km, 71.0° (Epoch: 11 August)

Event Time Altitude Azimuth Distance (km) Brightness Sun altitude
Rises 21:02:01 0° 339° (NNW) 3,414 7.0 -17.5°
Reaches altitude 10° 21:04:33 10° 344° (NNW) 2,475 5.8 -17.7°
Maximum altitude 21:10:04 50° 60° (ENE) 1,064 2.7 -18.2°
Enters shadow 21:12:50 28° 121° (ESE) 1,542 3.1 -18.4°
